OpenBCM V1.08-5-g2f4a (Linux)

Packet Radio Mailbox

IZ3LSV

[San Dona' di P. JN]

 Login: GUEST





  
LU9DCE > KEPS     10.03.18 17:13l 261 Lines 12942 Bytes #999 (0) @ WW
BID : 33945_LU9DCE
Read: GUEST
Subj: SAT TLE OF 10
Path: IZ3LSV<IR2UBX<EA2RCF<LU9DCE
Sent: 180310/1601Z @:LU9DCE.TOR.BA.ARG.SOAM #:33945 [TORTUGUITAS] FBB7.07
From: LU9DCE@LU9DCE.TOR.BA.ARG.SOAM
To  : KEPS@WW


            __    _  _  ___  ____   ___  ____    ____  ____  ____
           (  )  / )( \/ _ \(    \ / __)(  __)  (  _ \(  _ \/ ___)
           / (_/\) \/ (\__  )) D (( (__  ) _)    ) _ ( ) _ (\___ \
           \____/\____/(___/(____/ \___)(____)  (____/(____/(____/
               ESTACION DE PACKET RADIO - BUENOS AIRES (GF05OM)
                   BOLETINES INFORMATIVOS PROGRAMADOS (BIP)
                    LU9DCE@GMX.COM - RF 147070 @ 1200 BAUD
                           telnet lu9dce.dynu.com
             BBS port 6300 / NODE port 3694 / DXCLUSTER port 9000

+------------------------------------------------------------------------------+
OSCAR 7
1 07530U 74089B   18069.46960081 -.00000019  00000-0  16247-3 0  9995
2 07530 101.6747  38.3193 0012105 164.7640 305.8653 12.53631524982222
OSCAR 11 (UoSAT 2)
1 14781U 84021B   18068.88339858 +.00000064 +00000-0 +14044-4 0  9998
2 14781 097.6627 109.2657 0009678 055.2807 304.9318 14.82985292808720
OSCAR 19 (LUSAT)
1 20442U 90005G   18069.40481632  .00000007  00000-0  18768-4 0  9999
2 20442  98.6020   8.5494 0012920  82.4802 277.7849 14.32888831469747
KITSAT B
1 22825U 93061C   18068.37587796 -.00000003  00000-0  16690-4 0  9993
2 22825  98.8516  42.7425 0007342 279.4514  80.5837 14.30023498275302
POSAT 1
1 22826U 93061D   18068.48574089  .00000007  00000-0  20495-4 0  9998
2 22826  98.8458  42.9044 0007845 267.4922  92.5362 14.30354571275502
RADIO ROSTO
1 23439U 94085A   18069.16284604 -.00000037  00000-0  17098-3 0  9991
2 23439  64.8161 148.9865 0160642 199.8145 184.0734 11.27566591955566
JAS 2
1 24278U 96046B   18068.84807836 -.00000060 +00000-0 -24632-4 0  9994
2 24278 098.5269 281.2372 0350540 008.8250 351.8842 13.53081888064555
TECHSAT 1B
1 25397U 98043D   18068.86351496 -.00000008 +00000-0 +15360-4 0  9993
2 25397 098.6407 010.9954 0000871 009.1981 350.9213 14.23641069021376
ISS (ZARYA)
1 25544U 98067A   18068.97969907 +.00001793 +00000-0 +34230-4 0  9995
2 25544 051.6417 153.2828 0002655 165.3647 172.5544 15.54205628103083
PCSAT
1 26931U 01043C   18068.58425308 -.00000024 +00000-0 +22466-4 0  9998
2 26931 067.0508 126.4169 0006322 282.7671 077.2723 14.30496298858234
SAUDISAT 1C
1 27607U 02058C   18068.91469522 +.00000019 +00000-0 +23460-4 0  9997
2 27607 064.5562 033.4678 0053570 351.7430 008.2785 14.75426315818180
CUTE-1
1 27844U 03031E   18068.96475378 +.00000059 +00000-0 +46538-4 0  9998
2 27844 098.6895 079.0740 0008790 302.2867 057.7459 14.22098495762052
CUBESAT XI 4
1 27848U 03031J   18068.96690582 +.00000036 +00000-0 +36531-4 0  9995
2 27848 098.6983 079.4400 0008806 313.4806 046.5639 14.21704410761938
MOZHAYETS 4
1 27939U 03042A   18069.52890316  .00000101  00000-0  26523-4 0  9991
2 27939  97.9731 211.3052 0014336 101.0364 332.4792 14.66663063772359
CUBESAT XI 5
1 28895U 05043F   18068.86822978 +.00000142 +00000-0 +36152-4 0  9995
2 28895 097.8934 224.4294 0017299 027.9863 332.2266 14.63516399659117
CUTE-1.7+APD II
1 32785U 08021C   18068.86687512  .00000189  00000-0  26159-4 0  9997
2 32785  97.5524  85.7637 0013384  14.6447 345.5156 14.88072614534406
DELFI C3
1 32789U 08021G   18068.70998311 +.00001497 +00000-0 +10738-3 0  9994
2 32789 097.5246 125.9928 0011074 277.1637 082.8331 15.05798478536818
SEEDS
1 32791U 08021J   18069.11683422  .00000276  00000-0  33698-4 0  9992
2 32791  97.5437  91.1272 0013131 355.4502   4.6595 14.90483398534756
YUBELEINY
1 32953U 08025A   18068.80207852 +.00000019 +00000-0 +64863-4 0  9993
2 32953 082.4991 074.4855 0020304 068.1713 292.1524 12.43082107444426
PRISM (HITOMI)
1 33493U 09002B   18069.05424396  .00000403  00000-0  41433-4 0  9996
2 33493  98.1393 327.2945 0013967 286.0827  73.8859 14.96096766495527
KKS-1 (KISEKI)
1 33499U 09002H   18069.15795219  .00000124  00000-0  26421-4 0  9998
2 33499  98.3511 247.7269 0008087 244.4087 115.6285 14.75301058490573
SWISSCUBE
1 35932U 09051B   18069.21266627  .00000125  00000-0  39214-4 0  9994
2 35932  98.5291 218.0789 0008419 147.7803 212.3909 14.56128193449031
BEESAT
1 35933U 09051C   18068.90349402 +.00000100 +00000-0 +33597-4 0  9994
2 35933 098.5330 219.2461 0006363 158.5464 201.6001 14.56235580449016
ITUPSAT 1
1 35935U 09051E   18068.83353581 +.00000077 +00000-0 +28826-4 0  9993
2 35935 098.5443 219.4289 0008740 156.4418 203.7181 14.55416266448876
XIWANG-1 (HOPE-1)
1 36122U 09072B   18068.90197801 -.00000042 +00000-0 +13499-5 0  9998
2 36122 100.0826 088.1560 0007294 347.1679 012.9248 13.16343688395488
TISAT 1
1 36799U 10035E   18068.77746777  .00000517  00000-0  58742-4 0  9991
2 36799  98.0899 202.4601 0012740 169.1768 190.9726 14.90713824415346
JUGNU
1 37839U 11058B   18068.89765178  .00000331  00000-0  34405-4 0  9996
2 37839  19.9612 279.3240 0018856 232.4632 250.0683 14.12611611331316
SRMSAT
1 37841U 11058D   18069.05937303  .00000304  00000-0  21787-4 0  9998
2 37841  19.9729 325.5002 0012003 122.2813  10.7585 14.10599981330867
M-CUBED/EXP-1 PRIME
1 37855U 11061F   18068.97074912 +.00001983 +00000-0 +10907-3 0  9990
2 37855 101.7261 080.7261 0177492 015.8420 344.8245 15.04133297346268
HORYU 2
1 38340U 12025D   18069.00014248  .00000180  00000-0  34578-4 0  9991
2 38340  98.3734  87.2818 0012031 160.9345 199.2315 14.75508946312480
STRAND 1
1 39090U 13009E   18068.89059943 +.00000012 +00000-0 +19574-4 0  9997
2 39090 098.5313 276.5092 0008326 227.7618 132.2862 14.35013568263567
SOMP
1 39134U 13015E   18068.52455494 +.00001239 +00000-0 +68489-4 0  9995
2 39134 064.8626 089.2301 0022068 224.0274 135.9096 15.18870549269385
BEESAT 3
1 39135U 13015F   18069.17605521  .00000775  00000-0  49528-4 0  9993
2 39135  64.8676  99.2111 0027611 246.8489 112.9727 15.16440110269639
BEESAT 2
1 39136U 13015G   18068.45158330  .00000594  00000-0  40888-4 0  9994
2 39136  64.8686 104.0641 0028529 246.5282 113.2844 15.15919527269479
CUBEBUG 1
1 39153U 13018D   18069.21963391  .00000175  00000-0  29982-4 0  9999
2 39153  97.9774 165.0632 0015616 266.2938  93.6488 14.80350404262944
ZACUBE
1 39417U 13066B   18069.53136425  .00000210  00000-0  32758-4 0  9995
2 39417  97.5987 103.3826 0060570 117.7413 242.9961 14.80886506232192
TRITON 1
1 39427U 13066M   18069.51091451  .00000133  00000-0  29439-4 0  9999
2 39427  97.6390  71.9961 0113292 214.9235 144.4503 14.67619337230102
GOMX 1
1 39430U 13066Q   18069.48177222  .00000182  00000-0  42520-4 0  9990
2 39430  97.6885  53.5204 0150208 282.3069  76.1351 14.59035441228752
HUMSAT D
1 39433U 13066T   18069.37447681  .00000547  00000-0  59224-4 0  9994
2 39433  97.6169 129.1516 0032125  53.6573 306.7604 14.91768014233699
50 SAT
1 39436U 13066W   18069.55234503  .00142915  00000-0  15558-2 0  9990
2 39436  97.7110 197.9490 0005598 214.1154 145.9745 15.62942333237843
CUBEBUG 2
1 39440U 13066AA  18069.00520094  .00000174  00000-0  31251-4 0  9998
2 39440  97.6082  90.1032 0081239 156.6924 203.8004 14.75621611231293
FUNCUBE 1
1 39444U 13066AE  18068.56571745 +.00000240 +00000-0 +36006-4 0  9998
2 39444 097.5999 103.8659 0059740 116.7302 244.0043 14.81652540230313
UWE-3
1 39446U 13066AG  18069.13013673  .00000178  00000-0  30308-4 0  9994
2 39446  97.6022  96.2459 0071376 137.9703 222.7015 14.78155045230489
SPROUT
1 39770U 14029E   18069.52743231  .00000961  00000-0  11421-3 0  9991
2 39770  97.8718 171.4385 0009520 163.8105 196.3437 14.86705378205703
UNISAT 6
1 40012U 14033C   18068.88679951  .00000145  00000-0  29111-4 0  9992
2 40012  97.8233 308.7542 0058942 157.8598 202.5176 14.73772955200073
DUCHIFAT 1
1 40021U 14033M   18068.75365283 +.00000286 +00000-0 +35345-4 0  9990
2 40021 097.9173 347.2943 0013762 140.9905 219.2308 14.90216563202145
QB50P1
1 40025U 14033R   18068.80435574  .00000221  00000-0  29713-4 0  9992
2 40025  97.9081 344.3960 0013200 146.4756 213.7299 14.88649443202003
CHUBUSAT 1
1 40300U 14070C   18069.11125131  .00000495  00000-0  25057-4 0  9999
2 40300  97.3705 148.9008 0018572 248.8285 198.7616 15.21414259185219
NUDT-PHONESAT
1 40900U 15049B   18068.90654244 +.00001941 +00000-0 +90818-4 0  9994
2 40900 097.4435 078.3246 0014219 023.8709 336.3183 15.20872939136826
ZDPS 2A
1 40901U 15049C   18069.20132951  .00000856  00000-0  46753-4 0  9998
2 40901  97.4603  77.1012 0014542  28.3112 331.8908 15.16893788136655
ZDPS 2B
1 40902U 15049D   18069.22778762  .00000787  00000-0  43482-4 0  9996
2 40902  97.4495  75.3148 0014514  25.4258 334.7686 15.16698739136646
XW-2A
1 40903U 15049E   18069.49577212  .00001763  00000-0  46057-4 0  9999
2 40903  97.3964 103.3286 0015210  32.6250 327.5933 15.40086177138616
KAITUO 1A
1 40904U 15049F   18069.53608255  .00000686  00000-0  40273-4 0  9994
2 40904  97.4591  74.9719 0015778  25.4977  89.4005 15.14909615136561
OBJECT G
1 40905U 15049G   18069.46935716  .00000406  00000-0  25988-4 0  9998
2 40905  97.4582  73.1461 0016330  18.2563 341.9251 15.13877766136483
XW-2C
1 40906U 15049H   18069.51791603  .00000662  00000-0  38874-4 0  9992
2 40906  97.4602  74.8283 0015555  18.2395 341.9392 15.15046658136552
XW-2D
1 40907U 15049J   18069.47986723  .00000699  00000-0  40671-4 0  9995
2 40907  97.4574  74.5006 0014881  16.6065 343.5651 15.15186820136550
LILACSAT 2
1 40908U 15049K   18068.90640170 +.00000340 +00000-0 +22639-4 0  9993
2 40908 097.4684 073.4223 0016548 018.5993 341.5839 15.13424644136356
XW-2F
1 40910U 15049M   18069.10796040  .00001000  00000-0  54935-4 0  9995
2 40910  97.4581  75.2724 0015527  13.9514 346.2145 15.16307260136444
XW-2B
1 40911U 15049N   18068.96550100 +.00000650 +00000-0 +38152-4 0  9997
2 40911 097.4612 074.4951 0014841 018.8564 341.3215 15.15133961136370
